Flag for Equatorial Guinea Weather past 2 weeks in Mongomo, Equatorial Guinea

Now
66 °F

Partly cloudy.


Feels Like: 66 °F
Forecast: 66 / 76 °F
Wind: 2 mph from Southwest

Location: Yaounde Airport

Current Time: Jul 28, 2015 at 7:11:23 AM

Latest Report: Jul 28, 2015 at 6:00 AM


Visibility: 5 mi

Pressure: 30.09 "Hg (27.93 "Hg at 638m altitude)

Humidity: 94%

Dew point: 64 °F

Location of MongomoLocation

Historic Weather in Mongomo — Graph

°F

Mongomo temperature yesterday

Maximum temperature yesterday: 77 °F (at 1:00 PM)
Minimum temperature yesterday: 68 °F (at 1:00 AM)
Average temperature yesterday: 71 °F

Past Weeks' High & Low Weather Summary

 TemperatureHumidityPressure
High84 °F (Jul 14, 2:00 PM)100% (Jul 25, 5:00 AM)30.12 "Hg (Jul 25, 5:00 AM)
Low66 °F (Jul 28, 6:00 AM)62% (Jul 13, 3:00 PM)29.95 "Hg (Jul 14, 3:00 PM)
Average73 °F85%30.06 "Hg
* Reported Jul 13 6:00 AM — Jul 28 6:00 AM, Mongomo, Weather by CustomWeather, © 2015

Note: Actual official high and low records may vary slightly from our data, if they occured in-between our weather recording intervals... More about our weather records

Advertising

Mongomo weather history for previous 24 hours

 ConditionsComfort  
Time TempWeatherWind HumidityBarometerVisibility
6:00 AM
Tue, Jul 28
66 °FPartly cloudy.2 mph94%30.09 "Hg5 mi
5:00 AM68 °FPartly cloudy.6 mph88%30.07 "Hg5 mi
4:00 AM68 °FPartly cloudy.3 mph88%30.07 "Hg5 mi
3:00 AM68 °FPartly cloudy.5 mph88%30.07 "Hg5 mi
2:00 AM68 °FPartly cloudy.5 mph88%30.07 "Hg5 mi
1:00 AM68 °FPassing clouds.6 mph88%30.07 "Hg5 mi
12:00 AM68 °FPassing clouds.6 mph88%30.09 "Hg5 mi
11:00 PM
Mon, Jul 27
68 °FPassing clouds.3 mph88%30.09 "Hg5 mi
10:00 PM68 °FPassing clouds.8 mph88%30.09 "Hg5 mi
9:00 PM70 °FPartly cloudy.9 mph83%30.09 "Hg5 mi
8:00 PM70 °FPartly cloudy.6 mph88%30.07 "Hg4 mi
7:00 PM72 °FPassing clouds.10 mph83%30.04 "HgN/A
6:00 PM73 °FScattered clouds.7 mph78%30.01 "HgN/A
5:00 PM75 °FPartly sunny.8 mph74%30.01 "HgN/A
4:00 PM77 °FPartly sunny.7 mph74%30.01 "HgN/A
3:00 PM77 °FPartly sunny.9 mph69%30.01 "HgN/A
2:00 PM77 °FPartly sunny.8 mph74%30.04 "HgN/A
1:00 PM77 °FPartly sunny.6 mph74%30.07 "HgN/A
12:00 PM73 °FPartly sunny.8 mph83%30.09 "HgN/A
11:00 AM73 °FPartly sunny.7 mph83%30.12 "HgN/A
10:00 AM72 °FPartly sunny.5 mph88%30.12 "HgN/A
9:00 AM70 °FDrizzle. Broken clouds.8 mph94%30.12 "Hg5 mi
8:00 AM68 °FDrizzle. Broken clouds.6 mph94%30.09 "Hg1 mi
7:00 AM68 °FDrizzle. Broken clouds.5 mph94%30.07 "Hg1 mi
Weather by CustomWeather, © 2015

See weather overviewHow to use our weather pages